When you browse on this site, cookies collect data to enhance your experience and personalize the content and advertising you see.
Visit our Privacy Policy to learn more. By continuing to use the site, you agree to this use of cookies and data.
  • In Österreich
  • Länderverzeichnis
  • Für 7 Tage
  • Wassertemperatur
  • Wetterkarte
  • News
  • Widgets
  • user-avatar
    Anmelden

    Stündliche Wetter Chyrvyne

    Heute, 20 August, Dienstag

    Zeit Temperatur Niederschläge Wind Luftdruck Luftfeuchtigkeit
    00:00 +18°C° 0 mm 2 m/S 751 mmHg 74%
    01:00 +19°C° 0 mm 1 m/S 751 mmHg 77%
    02:00 +18°C° 0 mm 1 m/S 751 mmHg 79%
    03:00 +18°C° 0 mm 1 m/S 751 mmHg 81%
    04:00 +18°C° 0 mm 1 m/S 751 mmHg 82%
    05:00 +15°C° 0 mm 0 m/S 752 mmHg 84%
    06:00 +20°C° 0 mm 1 m/S 752 mmHg 76%
    07:00 +22°C° 0 mm 1 m/S 752 mmHg 69%
    08:00 +24°C° 0 mm 1 m/S 752 mmHg 62%
    09:00 +25°C° 0 mm 1 m/S 752 mmHg 57%
    10:00 +27°C° 0 mm 1 m/S 752 mmHg 52%
    11:00 +28°C° 0 mm 2 m/S 752 mmHg 47%
    12:00 +29°C° 0 mm 2 m/S 752 mmHg 44%
    13:00 +29°C° 0 mm 2 m/S 752 mmHg 40%
    14:00 +30°C° 0 mm 2 m/S 752 mmHg 37%
    15:00 +29°C° 0 mm 2 m/S 752 mmHg 40%
    16:00 +29°C° 0 mm 2 m/S 752 mmHg 43%
    17:00 +29°C° 0 mm 2 m/S 752 mmHg 45%
    18:00 +27°C° 0 mm 2 m/S 752 mmHg 49%
    19:00 +25°C° 0 mm 2 m/S 752 mmHg 53%
    20:00 +23°C° 0 mm 2 m/S 752 mmHg 57%
    21:00 +21°C° 0 mm 2 m/S 752 mmHg 60%
    22:00 +20°C° 0 mm 2 m/S 752 mmHg 63%
    23:00 +20°C° 0 mm 2 m/S 752 mmHg 66%

    Morgen, 21 August, Mittwoch

    Zeit Temperatur Niederschläge Wind Luftdruck Luftfeuchtigkeit
    00:00 +19°C° 0 mm 2 m/S 752 mmHg 68%
    01:00 +19°C° 0 mm 2 m/S 752 mmHg 69%
    02:00 +18°C° 0 mm 2 m/S 753 mmHg 71%
    03:00 +18°C° 0 mm 2 m/S 752 mmHg 72%
    04:00 +18°C° 0 mm 2 m/S 752 mmHg 73%
    05:00 +17°C° 0 mm 2 m/S 752 mmHg 74%
    06:00 +19°C° 0 mm 2 m/S 752 mmHg 69%
    07:00 +21°C° 0 mm 2 m/S 752 mmHg 63%
    08:00 +24°C° 0 mm 2 m/S 752 mmHg 58%
    09:00 +26°C° 0 mm 2 m/S 752 mmHg 53%
    10:00 +27°C° 0 mm 3 m/S 752 mmHg 48%
    11:00 +29°C° 0 mm 3 m/S 752 mmHg 43%
    12:00 +29°C° 0 mm 3 m/S 752 mmHg 41%
    13:00 +30°C° 0 mm 3 m/S 751 mmHg 39%
    14:00 +32°C° 0 mm 4 m/S 751 mmHg 37%
    15:00 +30°C° 0 mm 3 m/S 751 mmHg 40%
    16:00 +29°C° 0 mm 3 m/S 750 mmHg 44%
    17:00 +29°C° 0 mm 3 m/S 750 mmHg 48%
    18:00 +27°C° 0 mm 3 m/S 750 mmHg 54%
    19:00 +25°C° 0 mm 3 m/S 750 mmHg 60%
    20:00 +21°C° 0 mm 3 m/S 750 mmHg 66%
    21:00 +21°C° 0 mm 2 m/S 750 mmHg 69%
    22:00 +20°C° 0 mm 2 m/S 750 mmHg 72%
    23:00 +20°C° 0 mm 2 m/S 750 mmHg 75%

    übermorgen, 22 August, Donnerstag

    Zeit Temperatur Niederschläge Wind Luftdruck Luftfeuchtigkeit
    00:00 +19°C° 0 mm 2 m/S 750 mmHg 77%
    01:00 +19°C° 0 mm 2 m/S 750 mmHg 79%
    02:00 +18°C° 0 mm 2 m/S 750 mmHg 81%
    03:00 +18°C° 0 mm 2 m/S 750 mmHg 82%
    04:00 +18°C° 0 mm 2 m/S 750 mmHg 84%
    05:00 +17°C° 0 mm 2 m/S 750 mmHg 86%
    06:00 +19°C° 0 mm 2 m/S 750 mmHg 79%
    07:00 +21°C° 0 mm 2 m/S 750 mmHg 72%
    08:00 +24°C° 0 mm 2 m/S 750 mmHg 66%
    09:00 +26°C° 0 mm 2 m/S 750 mmHg 60%
    10:00 +27°C° 0 mm 3 m/S 750 mmHg 55%
    11:00 +29°C° 0 mm 3 m/S 750 mmHg 49%
    12:00 +29°C° 0 mm 3 m/S 750 mmHg 47%
    13:00 +30°C° 0 mm 4 m/S 750 mmHg 45%
    14:00 +32°C° 0 mm 4 m/S 750 mmHg 44%
    15:00 +30°C° 0 mm 4 m/S 750 mmHg 47%
    16:00 +30°C° 0 mm 3 m/S 749 mmHg 50%
    17:00 +29°C° 0 mm 3 m/S 749 mmHg 53%
    18:00 +27°C° 0 mm 3 m/S 750 mmHg 58%
    19:00 +25°C° 0 mm 3 m/S 750 mmHg 64%
    20:00 +24°C° 0 mm 2 m/S 750 mmHg 69%
    21:00 +22°C° 0 mm 3 m/S 750 mmHg 72%
    22:00 +21°C° 0 mm 3 m/S 750 mmHg 75%
    23:00 +21°C° 0 mm 3 m/S 750 mmHg 78%

    23 August, Freitag

    Zeit Temperatur Niederschläge Wind Luftdruck Luftfeuchtigkeit
    00:00 +20°C° 0 mm 3 m/S 750 mmHg 82%
    01:00 +20°C° 0 mm 3 m/S 750 mmHg 86%
    02:00 +19°C° 0 mm 3 m/S 750 mmHg 90%
    03:00 +19°C° 0 mm 3 m/S 751 mmHg 92%
    04:00 +19°C° 0 mm 3 m/S 751 mmHg 94%
    05:00 +18°C° 0 mm 3 m/S 751 mmHg 95%
    06:00 +20°C° 0 mm 3 m/S 751 mmHg 91%
    07:00 +21°C° 0 mm 3 m/S 751 mmHg 86%
    08:00 +22°C° 0 mm 4 m/S 751 mmHg 81%
    09:00 +23°C° 0 mm 4 m/S 751 mmHg 78%
    10:00 +25°C° 0 mm 4 m/S 751 mmHg 74%
    11:00 +26°C° 0 mm 4 m/S 752 mmHg 70%
    12:00 +26°C° 0.2 mm 5 m/S 752 mmHg 70%
    13:00 +26°C° 0.2 mm 5 m/S 752 mmHg 70%
    14:00 +26°C° 0.2 mm 6 m/S 752 mmHg 70%
    15:00 +24°C° 0 mm 6 m/S 752 mmHg 70%
    16:00 +25°C° 0 mm 5 m/S 752 mmHg 70%
    17:00 +25°C° 0 mm 5 m/S 752 mmHg 71%
    18:00 +22°C° 0 mm 5 m/S 752 mmHg 75%
    19:00 +21°C° 0 mm 4 m/S 752 mmHg 79%
    20:00 +20°C° 0 mm 4 m/S 752 mmHg 83%
    21:00 +19°C° 0 mm 4 m/S 752 mmHg 84%
    22:00 +19°C° 0 mm 4 m/S 753 mmHg 84%
    23:00 +18°C° 0 mm 4 m/S 753 mmHg 85%

    24 August, Samstag

    Zeit Temperatur Niederschläge Wind Luftdruck Luftfeuchtigkeit
    00:00 +17°C° 0 mm 4 m/S 753 mmHg 86%
    01:00 +17°C° 0 mm 4 m/S 753 mmHg 88%
    02:00 +15°C° 0 mm 4 m/S 753 mmHg 90%
    03:00 +15°C° 0 mm 4 m/S 753 mmHg 91%
    04:00 +14°C° 0 mm 4 m/S 753 mmHg 92%
    05:00 +14°C° 0 mm 4 m/S 753 mmHg 93%
    06:00 +17°C° 0 mm 4 m/S 754 mmHg 83%
    07:00 +18°C° 0 mm 4 m/S 754 mmHg 73%
    08:00 +20°C° 0 mm 5 m/S 754 mmHg 63%
    09:00 +22°C° 0 mm 5 m/S 754 mmHg 57%
    10:00 +23°C° 0 mm 5 m/S 754 mmHg 50%
    11:00 +25°C° 0 mm 5 m/S 754 mmHg 44%
    12:00 +26°C° 0 mm 5 m/S 754 mmHg 43%
    13:00 +26°C° 0 mm 5 m/S 754 mmHg 41%
    14:00 +27°C° 0 mm 5 m/S 754 mmHg 40%
    15:00 +26°C° 0 mm 4 m/S 754 mmHg 42%
    16:00 +26°C° 0 mm 4 m/S 754 mmHg 45%
    17:00 +25°C° 0 mm 4 m/S 754 mmHg 47%
    18:00 +22°C° 0 mm 4 m/S 754 mmHg 53%
    19:00 +20°C° 0 mm 3 m/S 754 mmHg 59%
    20:00 +18°C° 0 mm 3 m/S 754 mmHg 65%
    21:00 +17°C° 0 mm 3 m/S 754 mmHg 68%
    22:00 +17°C° 0 mm 3 m/S 754 mmHg 70%
    23:00 +16°C° 0 mm 2 m/S 754 mmHg 73%

    25 August, Sonntag

    Zeit Temperatur Niederschläge Wind Luftdruck Luftfeuchtigkeit
    00:00 +16°C° 0 mm 2 m/S 754 mmHg 75%
    01:00 +15°C° 0 mm 2 m/S 754 mmHg 77%
    02:00 +15°C° 0 mm 2 m/S 754 mmHg 79%
    03:00 +14°C° 0 mm 2 m/S 754 mmHg 80%
    04:00 +14°C° 0 mm 2 m/S 754 mmHg 81%
    05:00 +14°C° 0 mm 2 m/S 754 mmHg 82%
    06:00 +16°C° 0 mm 2 m/S 754 mmHg 74%
    07:00 +18°C° 0 mm 2 m/S 754 mmHg 66%
    08:00 +20°C° 0 mm 2 m/S 754 mmHg 59%
    09:00 +23°C° 0 mm 2 m/S 754 mmHg 53%
    10:00 +24°C° 0 mm 2 m/S 754 mmHg 47%
    11:00 +26°C° 0 mm 2 m/S 754 mmHg 42%
    12:00 +26°C° 0 mm 2 m/S 753 mmHg 39%
    13:00 +27°C° 0 mm 2 m/S 753 mmHg 36%
    14:00 +28°C° 0 mm 2 m/S 753 mmHg 34%
    15:00 +27°C° 0 mm 1 m/S 752 mmHg 36%
    16:00 +27°C° 0 mm 1 m/S 752 mmHg 39%
    17:00 +27°C° 0 mm 1 m/S 752 mmHg 42%
    18:00 +25°C° 0 mm 1 m/S 752 mmHg 46%
    19:00 +21°C° 0 mm 2 m/S 752 mmHg 50%
    20:00 +19°C° 0 mm 2 m/S 752 mmHg 55%
    21:00 +19°C° 0 mm 2 m/S 752 mmHg 58%
    22:00 +18°C° 0 mm 3 m/S 752 mmHg 61%
    23:00 +17°C° 0 mm 3 m/S 752 mmHg 64%
    Mehr zeigen